Weather History for KMWM - July, 2014

Change the Weather History Date:

Sunday, July 27, 2014

  Actual Average Record
Temperature  
Mean Temperature 65 °F -  
Max Temperature 71 °F 83 °F 98 °F (1955)
Min Temperature 59 °F 61 °F 48 °F (2005)
Growing Degree Days 15 (Base 50)    
Moisture  
Dew Point 56 °F    
Average Humidity 74    
Maximum Humidity 88    
Minimum Humidity 60    
Precipitation  
Precipitation 0.00 in - - ()
Sea Level Pressure  
Sea Level Pressure 30.03 in    
Wind  
Wind Speed 12 mph (WNW)    
Max Wind Speed 24 mph    
Max Gust Speed 32 mph    
Visibility 10 miles    
Events      
Averages and records for this station are not official NWS values.
T = Trace of Precipitation, MM = Missing Value Source: NWS Daily Summary

Daily Weather History Graph

Daily Weather History Graph

Search for Another Location

Airport or City:

Trip Planner

Search our weather history database for the weather conditions in past years. The results will help you decide how hot, cold, wet, or windy it might be!

Date:

Astronomy

Jul. 27, 2014 Rise Set
Actual Time 6:03 AM CDT 8:49 PM CDT
Civil Twilight 5:30 AM CDT 9:23 PM CDT
Nautical Twilight 4:47 AM CDT 10:05 PM CDT
Astronomical Twilight 3:58 AM CDT 10:53 PM CDT
Moon 6:55 AM CDT (7/27) 8:54 PM CDT (7/27)
Length of Visible Light 15h 53m
Length of Day
14h 46m
New Moon, 1% of the Moon is Illuminated
Jul 27
New Moon
Aug 3
First Quarter
Aug 10
Full
Aug 17
Last Quarter
Aug 25
New

Hourly Weather History & Observations

Time (CDT) Temp. Dew Point Humidity Pressure Visibility Wind Dir Wind Speed Gust Speed Precip Events Conditions
12:13 AM 68.0 °F 60.8 °F 78% 29.92 in 10.0 mi WNW 8.1 mph - N/A   Clear
12:33 AM 66.2 °F 60.8 °F 83% 29.92 in 10.0 mi WNW 9.2 mph - N/A   Clear
12:53 AM 66.2 °F 59.0 °F 78% 29.93 in 10.0 mi West 6.9 mph - N/A   Clear
1:13 AM 64.4 °F 59.0 °F 83% 29.93 in 10.0 mi West 6.9 mph - N/A   Clear
1:33 AM 64.4 °F 57.2 °F 77% 29.93 in 10.0 mi West 6.9 mph - N/A   Clear
1:53 AM 62.6 °F 57.2 °F 82% 29.93 in 10.0 mi West 5.8 mph - N/A   Clear
2:14 AM 62.6 °F 57.2 °F 82% 29.93 in 10.0 mi West 5.8 mph - N/A   Clear
2:33 AM 62.6 °F 55.4 °F 77% 29.92 in 10.0 mi West 4.6 mph - N/A   Clear
2:53 AM 60.8 °F 55.4 °F 82% 29.92 in 10.0 mi West 4.6 mph - N/A   Clear
3:13 AM 60.8 °F 55.4 °F 82% 29.92 in 10.0 mi West 4.6 mph - N/A   Clear
3:33 AM 60.8 °F 55.4 °F 82% 29.92 in 10.0 mi West 5.8 mph - N/A   Clear
3:53 AM 60.8 °F 55.4 °F 82% 29.92 in 10.0 mi West 5.8 mph - N/A   Clear
4:13 AM 60.8 °F 55.4 °F 82% 29.92 in 10.0 mi WSW 6.9 mph - N/A   Clear
4:33 AM 59.0 °F 55.4 °F 88% 29.91 in 10.0 mi WSW 8.1 mph - N/A   Clear
4:53 AM 59.0 °F 55.4 °F 88% 29.91 in 10.0 mi West 8.1 mph - N/A   Clear
5:14 AM 60.8 °F 55.4 °F 82% 29.92 in 10.0 mi West 6.9 mph - N/A   Clear
5:33 AM 59.0 °F 55.4 °F 88% 29.92 in 10.0 mi West 5.8 mph - N/A   Clear
5:53 AM 59.0 °F 55.4 °F 88% 29.92 in 10.0 mi West 6.9 mph - N/A   Clear
6:13 AM 60.8 °F 55.4 °F 82% 29.93 in 10.0 mi West 11.5 mph - N/A   Clear
6:33 AM 60.8 °F 55.4 °F 82% 29.93 in 10.0 mi West 12.7 mph 17.3 mph N/A   Clear
6:54 AM 62.6 °F 55.4 °F 77% 29.94 in 10.0 mi WNW 13.8 mph 23.0 mph N/A   Clear
7:13 AM 62.6 °F 55.4 °F 77% 29.94 in 10.0 mi WNW 16.1 mph 24.2 mph N/A   Scattered Clouds
7:33 AM 62.6 °F 55.4 °F 77% 29.95 in 10.0 mi WNW 13.8 mph 28.8 mph N/A   Clear
7:54 AM 64.4 °F 55.4 °F 73% 29.96 in 10.0 mi WNW 16.1 mph 21.9 mph N/A   Clear
8:13 AM 64.4 °F 55.4 °F 73% 29.96 in 10.0 mi NW 18.4 mph 27.6 mph N/A   Mostly Cloudy
8:33 AM 64.4 °F 55.4 °F 73% 29.97 in 10.0 mi NW 17.3 mph 25.3 mph N/A   Overcast
8:54 AM 64.4 °F 55.4 °F 73% 29.97 in 10.0 mi NW 16.1 mph 24.2 mph N/A   Mostly Cloudy
9:13 AM 64.4 °F 55.4 °F 73% 29.98 in 10.0 mi NW 16.1 mph 28.8 mph N/A   Mostly Cloudy
9:33 AM 64.4 °F 55.4 °F 73% 29.99 in 10.0 mi NW 23.0 mph 27.6 mph N/A   Overcast
9:54 AM 64.4 °F 55.4 °F 73% 29.99 in 10.0 mi NW 20.7 mph 25.3 mph N/A   Overcast
10:13 AM 64.4 °F 55.4 °F 73% 30.00 in 10.0 mi NW 20.7 mph 25.3 mph N/A   Overcast
10:33 AM 64.4 °F 55.4 °F 73% 30.01 in 10.0 mi WNW 16.1 mph 24.2 mph N/A   Overcast
10:54 AM 64.4 °F 55.4 °F 73% 30.02 in 10.0 mi NW 19.6 mph 28.8 mph N/A   Overcast
11:13 AM 66.2 °F 55.4 °F 68% 30.02 in 10.0 mi NW 19.6 mph 27.6 mph N/A   Overcast
11:33 AM 64.4 °F 55.4 °F 73% 30.03 in 10.0 mi WNW 16.1 mph 23.0 mph N/A   Overcast
11:53 AM 66.2 °F 55.4 °F 68% 30.04 in 10.0 mi NW 18.4 mph 24.2 mph N/A   Overcast
12:13 PM 64.4 °F 55.4 °F 73% 30.04 in 10.0 mi WNW 16.1 mph 24.2 mph N/A   Overcast
12:33 PM 66.2 °F 57.2 °F 73% 30.05 in 10.0 mi NW 21.9 mph 28.8 mph N/A   Overcast
12:53 PM 66.2 °F 55.4 °F 68% 30.05 in 10.0 mi NW 18.4 mph 26.5 mph N/A   Overcast
1:13 PM 66.2 °F 55.4 °F 68% 30.05 in 10.0 mi NW 19.6 mph 29.9 mph N/A   Overcast
1:33 PM 66.2 °F 55.4 °F 68% 30.06 in 10.0 mi NW 21.9 mph 26.5 mph N/A   Overcast
1:53 PM 66.2 °F 57.2 °F 73% 30.06 in 10.0 mi NW 15.0 mph 26.5 mph N/A   Overcast
2:13 PM 66.2 °F 57.2 °F 73% 30.07 in 10.0 mi NW 13.8 mph 24.2 mph N/A   Overcast
2:33 PM 66.2 °F 57.2 °F 73% 30.07 in 10.0 mi WNW 16.1 mph 26.5 mph N/A   Overcast
2:53 PM 69.8 °F 57.2 °F 64% 30.07 in 10.0 mi WNW 21.9 mph 28.8 mph N/A   Scattered Clouds
3:13 PM 69.8 °F 57.2 °F 64% 30.08 in 10.0 mi NW 23.0 mph 31.1 mph N/A   Scattered Clouds
3:33 PM 69.8 °F 57.2 °F 64% 30.08 in 10.0 mi NW 18.4 mph 28.8 mph N/A   Mostly Cloudy
3:53 PM 69.8 °F 57.2 °F 64% 30.07 in 10.0 mi NW 23.0 mph 31.1 mph N/A   Scattered Clouds
4:13 PM 71.6 °F 57.2 °F 60% 30.08 in 10.0 mi NW 24.2 mph 32.2 mph N/A   Scattered Clouds
4:33 PM 69.8 °F 57.2 °F 64% 30.08 in 10.0 mi NW 20.7 mph 31.1 mph N/A   Scattered Clouds
4:53 PM 71.6 °F 57.2 °F 60% 30.09 in 10.0 mi NW 20.7 mph 25.3 mph N/A   Scattered Clouds
5:13 PM 71.6 °F 59.0 °F 64% 30.09 in 10.0 mi NW 17.3 mph 25.3 mph N/A   Scattered Clouds
5:33 PM 69.8 °F 57.2 °F 64% 30.09 in 10.0 mi NW 17.3 mph 25.3 mph N/A   Mostly Cloudy
5:53 PM 69.8 °F 57.2 °F 64% 30.09 in 10.0 mi NW 19.6 mph 28.8 mph N/A   Scattered Clouds
6:13 PM 69.8 °F 57.2 °F 64% 30.10 in 10.0 mi NW 18.4 mph 24.2 mph N/A   Mostly Cloudy
6:33 PM 69.8 °F 57.2 °F 64% 30.10 in 10.0 mi NW 17.3 mph 28.8 mph N/A   Scattered Clouds
6:54 PM 69.8 °F 57.2 °F 64% 30.11 in 10.0 mi NW 19.6 mph 24.2 mph N/A   Mostly Cloudy
7:13 PM 69.8 °F 57.2 °F 64% 30.11 in 10.0 mi NW 17.3 mph 24.2 mph N/A   Mostly Cloudy
7:33 PM 68.0 °F 57.2 °F 68% 30.11 in 10.0 mi NW 17.3 mph 25.3 mph N/A   Scattered Clouds
7:53 PM 68.0 °F 57.2 °F 68% 30.11 in 10.0 mi NW 16.1 mph 21.9 mph N/A   Clear
8:13 PM 66.2 °F 57.2 °F 73% 30.12 in 10.0 mi NW 15.0 mph 20.7 mph N/A   Clear
8:34 PM 64.4 °F 57.2 °F 77% 30.12 in 10.0 mi NW 13.8 mph 18.4 mph N/A   Clear
8:53 PM 64.4 °F 57.2 °F 77% 30.13 in 10.0 mi NW 11.5 mph - N/A   Clear
9:13 PM 64.4 °F 57.2 °F 77% 30.14 in 10.0 mi NW 12.7 mph - N/A   Clear
9:34 PM 62.6 °F 57.2 °F 82% 30.15 in 10.0 mi NW 10.4 mph - N/A   Clear
9:53 PM 62.6 °F 55.4 °F 77% 30.15 in 10.0 mi NW 13.8 mph - N/A   Clear
10:13 PM 62.6 °F 55.4 °F 77% 30.16 in 10.0 mi NW 13.8 mph - N/A   Scattered Clouds
10:34 PM 62.6 °F 55.4 °F 77% 30.17 in 10.0 mi NW 10.4 mph - N/A   Scattered Clouds
10:53 PM 60.8 °F 55.4 °F 82% 30.17 in 10.0 mi NW 10.4 mph - N/A   Scattered Clouds
11:13 PM 60.8 °F 55.4 °F 82% 30.17 in 10.0 mi NW 11.5 mph - N/A   Clear
11:53 PM 60.8 °F 55.4 °F 82% 30.17 in 10.0 mi NNW 12.7 mph - N/A   Scattered Clouds